BEIDOU-3 G4

Last updated on Tue Sep 16 2025 00:02:51 GMT+0000 (Coordinated Universal Time)

1 56564U 23066A 25258.50111719 -.00000128 00000+0 00000+0 0 9990 2 56564 1.0166 296.1303 0005844 214.1339 184.9098 1.00271497 8648
UTC large
Height (km)
Speed (km/s)
/
Latitude / Longitude
Inclination (degrees)
Orbital Period (minutes)
Azimuth
Elevation
Range (km)
Doppler Factor

Next 0 passes for location: London (51.5072 / 0.1276)

Sorry there are no passes over London.